This is the latest recevied weather packets stored in our database for station/object N5YHM-13. If no packets are shown the sender has not sent any weather packets the latest 10 day(s).
| Time | Temp. | Humidity | Pressure | Rain* | Wind** | Luminosity | Snow |
|---|---|---|---|---|---|---|---|
| 1787670945 | 28.33° C | 91% | 1019.7 hPa | 0 mm | - | 17 W/m² | - |
| 1787670640 | 28.33° C | 91% | 1019.6 hPa | 0 mm | - | 23 W/m² | - |
| 1787670334 | 27.78° C | 92% | 1019.8 hPa | 0 mm | - | 11 W/m² | - |
| 1787670029 | 27.22° C | 95% | 1019.6 hPa | 0 mm | - | 11 W/m² | - |
| 1787669723 | 26.67° C | 97% | 1019.9 hPa | 0 mm | - | 12 W/m² | - |
| 1787669418 | 26.67° C | 98% | 1019.7 hPa | 0 mm | - | 11 W/m² | - |
| 1787669114 | 26.11° C | 99% | 1019.7 hPa | 0 mm | - | 11 W/m² | - |
| 1787668809 | 26.11° C | 99% | 1019.7 hPa | 0 mm | - | 137 W/m² | - |
| 1787668506 | 25.56° C | 99% | 1019.6 hPa | 0 mm | - | 58 W/m² | - |
| 1787668201 | 25.56° C | 99% | 1019.7 hPa | 0 mm | - | 52 W/m² | - |
| 1787667896 | 25° C | 99% | 1019.6 hPa | 0 mm | - | 26 W/m² | - |
| 1787667591 | 25° C | 99% | 1019.6 hPa | 0 mm | - | 135 W/m² | - |
| 1787667287 | 25° C | 99% | 1019.7 hPa | 0 mm | - | 65 W/m² | - |
| 1787666986 | 25° C | 99% | 1019.8 hPa | 0 mm | - | 14 W/m² | - |
| 1787666682 | 25° C | 99% | 1019.7 hPa | 0 mm | - | 10 W/m² | - |
| 1787666382 | 25° C | 99% | 1019.5 hPa | 0 mm | - | 11 W/m² | - |
| 1787666078 | 25° C | 99% | 1019.9 hPa | 0 mm | - | 51 W/m² | - |
| 1787665773 | 24.44° C | 99% | 1019.8 hPa | 0 mm | - | 43 W/m² | - |
| 1787665467 | 24.44° C | 99% | 1019.7 hPa | 0 mm | - | 9 W/m² | - |
| 1787665168 | 24.44° C | 99% | 1019.8 hPa | 0 mm | - | 10 W/m² | - |
| 1787664866 | 24.44° C | 99% | 1019.8 hPa | 0 mm | - | 9 W/m² | - |
| 1787664566 | 24.44° C | 99% | 1019.5 hPa | 0 mm | - | 34 W/m² | - |
| 1787664261 | 24.44° C | 99% | 1019.5 hPa | 0 mm | - | 45 W/m² | - |
| 1787663960 | 23.89° C | 99% | 1019.7 hPa | 0 mm | - | 13 W/m² | - |
| 1787663655 | 23.89° C | 99% | 1019.7 hPa | 0 mm | - | 7 W/m² | - |
* Rain latest hour (hover to see other rain measurements)
** Current wind speed in m/s (hover to see current wind gust speed)